Wind from 014 at 1 knots gusting 10

Air temperature 8.3° C
Dewpoint -5.2° C

Last reported at 2014-Apr-23 06:43 UTC.
Time now 2014-Apr-23 07:24 UTC

Location: N 61°53' E 027°53'.
View on Google Maps.

See reports from other nearby stations

Tides Stations Pressure Air Temp Water Temp Dewpoint Dewpoint depression Visibility Wind Speed Wind Dir Waves Ship positions

  
sailing weather and tide predictions

CW9197 Juva FI weather

date/time (UTC)wind fromknots sea level pressurealtimeterstation pressurevisibilityair tempwater tempwave heightnotes
2014-Apr-23 06:43 014 1 gusting 10 8.3
2014-Apr-23 06:33 008 1 gusting 8 7.8
2014-Apr-23 06:23 358 7 gusting 8 8.3
2014-Apr-23 06:13 004 3 gusting 12 8.3
2014-Apr-23 06:03 340 1 gusting 7 8.3
2014-Apr-23 05:53 067 1 gusting 3 7.8
2014-Apr-22 19:56 040 0 gusting 6 5.6
2014-Apr-22 19:46 341 0 gusting 5 5.6
2014-Apr-22 19:36 358 0 gusting 6 6.1
2014-Apr-22 19:26 356 2 gusting 4 6.1
2014-Apr-22 19:16 357 2 gusting 6 6.7
2014-Apr-22 19:06 349 1 gusting 8 6.7
2014-Apr-22 18:56 329 1 gusting 7 7.2
2014-Apr-22 18:46 349 2 gusting 7 7.2
2014-Apr-22 18:36 339 3 gusting 8 7.2
2014-Apr-22 18:26 322 1 gusting 9 7.8
2014-Apr-22 18:16 320 3 gusting 10 7.8
2014-Apr-22 18:06 309 1 gusting 7 8.3
2014-Apr-22 17:56 343 3 gusting 9 8.9
2014-Apr-22 17:46 346 3 gusting 10 8.9
2014-Apr-22 17:36 333 2 gusting 9 9.4
2014-Apr-22 17:26 343 2 gusting 10 9.4
2014-Apr-22 17:16 330 2 gusting 9 10.0
2014-Apr-22 17:06 015 0 gusting 10 10.0
2014-Apr-22 16:56 353 4 gusting 10 10.6
2014-Apr-22 16:46 345 1 gusting 8 11.1
2014-Apr-22 16:36 351 6 gusting 14 11.1
2014-Apr-22 16:26 002 2 gusting 12 11.7
2014-Apr-22 16:16 352 6 gusting 11 11.7
2014-Apr-22 16:06 331 3 gusting 11 12.2
2014-Apr-22 15:56 327 5 gusting 11 12.2
2014-Apr-22 15:46 026 4 gusting 13 12.2
2014-Apr-22 15:36 014 3 gusting 13 12.8
2014-Apr-22 15:26 333 3 gusting 15 12.8
2014-Apr-22 15:16 333 6 gusting 13 13.3
2014-Apr-22 15:06 338 6 gusting 19 13.3
2014-Apr-22 14:56 325 5 gusting 12 13.9
2014-Apr-22 14:46 339 6 gusting 13 13.9
2014-Apr-22 14:36 013 4 gusting 11 13.9
2014-Apr-22 14:26 356 4 gusting 14 14.4
2014-Apr-22 14:16 339 4 gusting 11 14.4
2014-Apr-22 14:06 332 3 gusting 11 15.0
2014-Apr-22 13:56 339 2 gusting 9 15.0
2014-Apr-22 13:46 342 5 gusting 10 15.0
2014-Apr-22 13:36 316 5 gusting 9 15.6
2014-Apr-22 13:26 274 6 gusting 12 15.6
2014-Apr-22 13:16 285 4 gusting 9 15.6
2014-Apr-22 13:06 319 1 gusting 7 15.6
2014-Apr-22 12:56 296 5 gusting 13 15.6
2014-Apr-22 12:46 300 4 gusting 8 15.6
2014-Apr-22 12:36 264 4 gusting 13 15.6
2014-Apr-22 12:26 332 6 gusting 9 15.6
2014-Apr-22 12:16 321 0 gusting 8 15.6
2014-Apr-22 12:06 260 5 gusting 10 15.6
2014-Apr-22 11:56 287 3 gusting 7 15.0
2014-Apr-22 11:46 349 5 gusting 12 15.0
2014-Apr-22 11:36 324 5 gusting 9 15.6
2014-Apr-22 11:26 338 4 gusting 9 15.6
2014-Apr-22 11:16 319 6 gusting 11 15.6
2014-Apr-22 11:06 306 2 gusting 9 15.6
2014-Apr-22 10:56 327 4 gusting 10 15.6
2014-Apr-22 10:46 320 5 gusting 11 15.6
2014-Apr-22 10:36 340 5 gusting 13 15.6
2014-Apr-22 10:26 326 5 gusting 12 16.1
2014-Apr-22 10:16 275 3 gusting 11 16.7
2014-Apr-22 10:06 336 5 gusting 11 16.7
2014-Apr-22 09:55 354 5 gusting 9 16.7
2014-Apr-22 09:45 348 5 gusting 11 17.2
2014-Apr-22 09:35 340 4 gusting 11 17.2
2014-Apr-22 09:25 317 2 gusting 8 16.7
2014-Apr-22 09:15 309 1 gusting 9 16.7
2014-Apr-22 09:05 347 6 gusting 11 16.7
2014-Apr-22 08:55 335 2 gusting 13 16.1
2014-Apr-22 08:45 321 6 gusting 13 16.1
2014-Apr-22 08:35 332 5 gusting 8 16.1
2014-Apr-22 08:25 334 6 gusting 11 17.2
2014-Apr-22 08:15 344 4 gusting 9 17.8
2014-Apr-22 08:05 302 3 gusting 10 17.8
2014-Apr-22 07:55 283 2 gusting 5 17.8
2014-Apr-22 07:45 266 3 gusting 9 17.2
2014-Apr-22 07:35 299 4 gusting 8 16.7
2014-Apr-22 07:25 274 4 gusting 13 15.6
2014-Apr-22 07:15 275 3 gusting 8 15.6
2014-Apr-22 07:05 328 3 gusting 5 16.1
2014-Apr-22 06:55 277 2 gusting 4 16.7
2014-Apr-22 06:45 238 2 gusting 4 17.2
2014-Apr-22 06:35 263 1 gusting 3 17.2
2014-Apr-22 06:25 245 1 gusting 4 16.7
2014-Apr-22 06:15 255 0 gusting 2 16.7
2014-Apr-22 06:05 245 0 gusting 6 16.1
2014-Apr-22 05:55 270 1 gusting 1 16.1
2014-Apr-21 19:45 241 10.0
2014-Apr-21 19:35 225 10.0
2014-Apr-21 18:55 220 0 gusting 1 11.1
2014-Apr-21 18:45 247 0 gusting 1 11.7
2014-Apr-21 18:25 180 12.2
2014-Apr-21 18:15 180 12.2
2014-Apr-21 18:05 180 12.8
2014-Apr-21 17:55 157 12.8
2014-Apr-21 17:22 155 0 gusting 2 13.9
2014-Apr-21 17:12 171 0 gusting 1 13.9
2014-Apr-21 17:02 157 13.9
2014-Apr-21 16:52 184 14.4
2014-Apr-21 16:42 185 1 gusting 3 14.4
2014-Apr-21 16:32 179 0 gusting 2 15.0
2014-Apr-21 16:22 192 0 gusting 3 15.0
2014-Apr-21 16:12 198 1 gusting 3 15.0
2014-Apr-21 16:02 186 1 gusting 2 15.0
2014-Apr-21 15:52 200 1 gusting 2 15.0
2014-Apr-21 15:42 201 1 gusting 2 15.0
2014-Apr-21 15:32 194 1 gusting 3 15.0
2014-Apr-21 15:22 209 0 gusting 3 15.6
2014-Apr-21 15:12 196 1 gusting 2 15.6
2014-Apr-21 15:02 207 1 gusting 3 16.1
2014-Apr-21 14:52 184 0 gusting 3 16.1
2014-Apr-21 14:42 197 2 gusting 4 16.1
2014-Apr-21 14:32 211 1 gusting 6 16.1
2014-Apr-21 14:22 216 2 gusting 4 16.1
2014-Apr-21 14:12 106 2 gusting 6 16.1
2014-Apr-21 14:02 180 1 gusting 5 16.1
2014-Apr-21 13:52 190 2 gusting 6 16.1
2014-Apr-21 13:42 174 1 gusting 5 16.7
2014-Apr-21 13:32 207 2 gusting 4 16.7
2014-Apr-21 13:22 217 2 gusting 5 16.7
2014-Apr-21 13:12 185 2 gusting 5 16.7
2014-Apr-21 13:02 202 2 gusting 6 16.7
2014-Apr-21 12:52 192 1 gusting 6 16.7
2014-Apr-21 12:42 212 1 gusting 4 16.7
2014-Apr-21 12:31 099 2 gusting 5 17.2
2014-Apr-21 12:21 206 1 gusting 4 16.7
2014-Apr-21 12:11 168 1 gusting 5 16.7
2014-Apr-21 12:01 222 2 gusting 4 16.7
2014-Apr-21 11:51 227 1 gusting 5 16.7
2014-Apr-21 11:41 213 2 gusting 4 16.7
2014-Apr-21 11:31 199 2 gusting 6 16.1
2014-Apr-21 11:21 203 2 gusting 4 16.1
2014-Apr-21 11:11 213 0 gusting 6 15.6
2014-Apr-21 11:01 068 4 gusting 7 15.6
2014-Apr-21 10:51 057 1 gusting 6 15.6
2014-Apr-21 10:41 095 4 gusting 6 15.6
2014-Apr-21 10:31 078 1 gusting 6 15.6
2014-Apr-21 10:21 051 2 gusting 6 15.6
2014-Apr-21 10:11 078 2 gusting 6 15.6
2014-Apr-21 10:01 114 1 gusting 6 16.1
2014-Apr-21 09:51 117 0 gusting 4 16.1
2014-Apr-21 09:41 040 0 gusting 6 15.6
2014-Apr-21 09:31 118 1 gusting 6 15.6
2014-Apr-21 09:21 203 0 gusting 6 15.0
2014-Apr-21 09:11 055 2 gusting 6 15.0
2014-Apr-21 09:01 093 2 gusting 6 14.4
2014-Apr-21 08:51 198 1 gusting 5 13.3
2014-Apr-21 08:41 094 2 gusting 5 13.3
2014-Apr-21 08:31 147 1 gusting 6 13.9
2014-Apr-21 08:21 156 2 gusting 5 14.4
2014-Apr-21 08:11 114 2 gusting 6 14.4
2014-Apr-21 08:01 066 13.9
2014-Apr-21 07:51 112 1 gusting 6 13.3
2014-Apr-21 07:41 069 2 gusting 7 12.8
2014-Apr-21 07:31 121 1 gusting 6 12.2
2014-Apr-21 07:21 083 3 gusting 6 11.7
2014-Apr-21 07:11 066 2 gusting 6 11.1
2014-Apr-21 07:01 079 2 gusting 5 11.7